Weather Service Report


034 
ASHW40 PHFO 301543
RWRHI 

WEATHER ROUNDUP FOR HAWAII
NATIONAL WEATHER SERVICE HONOLULU HI
500 AM HST THU JUN 30 2016

THIS IS AN AUTOMATED REPORT THAT HAS NOT BEEN QUALITY CONTROLLED.

NOTE..."FAIR" INDICATES FEW OR NO CLOUDS BELOW 12,000 FEET WITH NO
SIGNIFICANT WEATHER AND/OR OBSTRUCTIONS TO VISIBILITY.

* - THESE SITES REPORT LIMITED FIELDS

HIZ001>004-301600-
KAUAI-NIIHAU-
  
CITY           SKY/WX    TMP DP  RH WIND       PRES   REMARKS
LIHUE APT      MOCLDY    75  71  87 NE15      30.07R                  
PORT ALLEN*      N/A     77 N/A N/A E15G21      N/A                   
POIPU*           N/A     77 N/A N/A NE8G15      N/A                   
PRINCEVILLE*     N/A     75 N/A N/A SE6         N/A                   
KOKOLE POINT*  NOT AVBL                                               
MOLOAA DAIRY*    N/A     75  72  88 E5G12       N/A                   
WAIMEA HTS*      N/A     72  68  88 N1          N/A                   
PUU OPAE*        N/A     66  63  88 CALM        N/A                   
PUU LUA*       NOT AVBL                                               
MAKAHA RIDGE*    N/A     68  66  94 CALM        N/A                   
$$

HIZ005>011-301600-
OAHU-
  
CITY           SKY/WX    TMP DP  RH WIND       PRES   REMARKS
HONOLULU       CLOUDY    79  68  69 NE13      30.04R                  
KALAELOA       CLOUDY    76  68  76 NE3       30.05R                  
KANEOHE MCB    MOCLDY    78  72  81 E10       30.04R                  
WHEELER FIELD  NOT AVBL                                               
BELLOWS*         N/A    N/A N/A N/A NE16        N/A                   
KAHUKU*          N/A    N/A N/A N/A VRB9G15     N/A                   
WHEELER*         N/A    N/A N/A N/A N2          N/A                   
WAIANAE HARBOR   N/A    N/A N/A N/A NE7G15      N/A                   
DILLINGHAM*      N/A     90  86  89 MISG        N/A  HX 119           
KAHUKU TRN*      N/A     84  79  84 CALM        N/A  HX  96           
KAWAILOA*        N/A     72  66  83 E5G16       N/A                   
KII*             N/A     79  73  83 E17G23      N/A                   
MAKUA RANGE*     N/A     75  64  69 E5G10       N/A                   
OAHU FOREST NW   N/A     70  66  88 E14         N/A                   
SCHOFIELD BRK*   N/A     70  64  83 CALM        N/A                   
SCHOFIELD S*   NOT AVBL                                               
WAIANAE VLY*   NOT AVBL                                               
KUAOKALA*        N/A     73  66  78 NE14G21     N/A                   
HONOULIUULI*   NOT AVBL                                               
MOKUOLOE IS*   NOT AVBL                                               
PALEHUA*         N/A     66  66 100 NE14G21     N/A                   
WAIAWA PHB*    NOT AVBL                                               
$$

HIZ012>013-301600-
MOLOKAI-
  
CITY           SKY/WX    TMP DP  RH WIND       PRES   REMARKS
MOLOKAI AIRPT  PTCLDY    75  70  84 NE12G21   30.05R                  
KALAUPAPA      NOT AVBL                                               
MAKAPULAPAI*     N/A     77  72  83 E18G26      N/A                   
MOLOKAI 1*     NOT AVBL                                               
PUU ALII*        N/A     61  61  99 N3G12       N/A                   
$$

HIZ016-301600-
KAHOOLAWE-
  
CITY           SKY/WX    TMP DP  RH WIND       PRES   REMARKS
KAHOOLAWE*       N/A     72 N/A N/A NE1         N/A                   
HAKIOAWA*        N/A     73  70  91 MISG      30.46R                  
HONOKANAIA*      N/A     79  67  66 NE8       29.96S                  
KANELOA*         N/A     75  72  88 E13G28    30.09R                  
KEALIALALO*    NOT AVBL                                               
LUA MAKIKA*    NOT AVBL                                               
$$

HIZ014>015-301600-
LANAI-
  
CITY           SKY/WX    TMP DP  RH WIND       PRES   REMARKS
LANAI CITY     FAIR      70  67  90 E6        30.09R                  
LANAI 1*       NOT AVBL                                               
$$

HIZ017>028-301600-
MAUI-
  
CITY           SKY/WX    TMP DP  RH WIND       PRES   REMARKS
KAHULUI        MOCLDY    77  72  84 NE18      30.03                   
KAPALUA-W MAUI NOT AVBL                                               
HANA AIRPORT   NOT AVBL                                               
HANA*            N/A     77 N/A N/A E5          N/A                   
HALEAKALA SUMM   N/A     46  30  53 SE25        N/A                   
MAALAEA BAY*     N/A     77 N/A N/A N12G28      N/A                   
HALEAKALA*     NOT AVBL                                               
KAUPO GAP*       N/A     72  55  56 NW6         N/A                   
KULA 1*          N/A    N/A N/A N/A SE12G23     N/A                   
$$

HIZ023>026-301600-
BIG ISLAND OF HAWAII COAST AND LOWER SLOPES-
  
CITY           SKY/WX    TMP DP  RH WIND       PRES   REMARKS
KAILUA KONA    PTCLDY    77  70  78 NE6       29.99R                  
HILO           CLOUDY    74  66  76 W7        30.04S                  
HONOKAA*         N/A     72 N/A N/A VRB1        N/A                   
KAWAIHAE MWT*    N/A     79 N/A N/A NE5         N/A                   
KAWAIHAE*        N/A     79 N/A N/A E2        29.98S                  
SOUTH POINT*     N/A     73 N/A N/A N16G24      N/A                   
UPOLU AIRPORT*   N/A    N/A N/A N/A NE18G28     N/A                   
KAMUELA*       SUNNY     66  63  88 NE20      30.12S                  
HAKALAU*         N/A     53  39  59 SW5G12      N/A                   
KALOKO-HONOKO*   N/A     73  68  83 E2        29.98R                  
PALI 2*          N/A     66  59  77 S16G25      N/A                   
KEALAKOMO*       N/A     81  66  61 VRB17G25    N/A                   
KAUPULEHU*       N/A     72  66  83 S6          N/A                   
KAPAPALA*        N/A     62  58  85 NW7         N/A                   
LOWER KAHUKU*    N/A     64 N/A N/A VRB3G12     N/A                   
PUHE CS*         N/A     79  66  65 NE2         N/A                   
PUHO CS*         N/A     73  64  73 E3          N/A                   
PTA KEAMUKU*     N/A     61  57  88 CALM        N/A                   
WAIKOLOA*        N/A     73  63  68 E16         N/A                   
$$

HIZ027>028-301600-
BIG ISLAND OF HAWAII INTERIOR AND SUMMMITS-
  
CITY           SKY/WX    TMP DP  RH WIND       PRES   REMARKS
BRADSHAW FIELD NOT AVBL                                               
MK VISITOR CEN   N/A     52  30  43 N20         N/A                   
MAUNA KEA*       N/A     32  19  59 S10         N/A  WCI  24          
MAUNA LOA*       N/A    N/A N/A N/A MISG        N/A                   
MAUNA LOA 1*   NOT AVBL                                               
PTA KIPUKA*      N/A     54  39  58 E3          N/A                   
PTA RANGE 17*    N/A    N/A N/A N/A E14G23      N/A                   
PTA WEST*        N/A     75  73  94 SE2G8       N/A                   
NENE CABIN*      N/A    N/A N/A N/A NE8G16      N/A                   
AHUMOA*          N/A    N/A N/A N/A E9          N/A                   
PTA PORTABLE*  NOT AVBL                                               
PUU MALI*        N/A    N/A N/A N/A SE12G21     N/A                   
$$

HIC003-301600-
NORTHWEST ISLANDS-
  
CITY           SKY/WX    TMP DP  RH WIND       PRES   REMARKS
MIDWAY ISLAND  CLOUDY    75  66  73 E10       30.16S                  
MIDWAY NOS*      N/A     77 N/A N/A MISG      30.15S                  
FRENCH FRIGATE NOT AVBL                                               
$$

PHZ110>124-180-301600-
BUOY REPORTS
  
STATION/POSITION TIME  TEMP    WIND        PRES    WAVE   SWELL
                       AIR SEA DIR/SP/G            HT/PER HT/DIR
                 (UTC) (F)     (DEG/KT/KT) (MB)    (FT/S) (FT/D)
BUOY 51001       1500   79 81   90/ 16/ 19 1016.0F
BUOY 51101       1450   77 79   80/ 17/ 21 1018.4R   6/ 8   2/180
BUOY 51100       NOT AVBL
BUOY 51002       1450   80 80   90/ 16/ 19 1014.2S   7/ 8   5
BUOY 51003       1450   80 81   70/ 12/ 16 1015.6R   6/15   5/170
BUOY 51004       1450   79 80   60/ 16/ 19 1015.0F   7/15   5/160
BARBERS PT BUOY  NOT AVBL
WAIMEA BAY BUOY  1504      79                N/A     4/ 7
KAILUA BAY BUOY  1511      79                N/A     5/ 7   2/140
LANAI BUOY       1515      80                N/A     3/14   2/190
BARBERS PT 2     NOT AVBL
PAUWELA MAUI     1509      78                N/A     6/ 8
HILO             1512      80                N/A     5/ 8   2/110
KANEOHE BAY BUOY 1506      78                N/A     4/ 7
HANALEI KAUAI    NOT AVBL
KAHULUI HARBOR   1500   78 80   40/ 13/ 18 1016.9R
HONOLULU HARBOR  1500   79 79   50/  3/  7 1017.8R
KILO NALU        NOT AVBL
HILO HARBOR      1500   74 78  220/  3/  4 1016.9R
MOKUOLOE         1400   78 82   90/  7/ 10 1017.3F
NAWILIWILI       1500   77 80   50/  9/ 12 1017.9R
WHOTS BUOY       NOT AVBL
BUOY 51028       NOT AVBL
$$

......................KEY........................................
  SKY/WX - SKY CONDITIONS/PRESENT WEATHER
  TMP    - TEMPERATURE IN FAHRENHEIT
  DWPT   - DEWPOINT IN FAHRENHEIT
  RH     - RELATIVE HUMIDITY IN PERCENT
  WIND   - DIRECTION AND SPEED /MPH FOR ISLANDS...KTS FOR BUOYS/
  PRES   - MEAN SEA LEVEL PRESSURE IN INCHES OF HG
  VSB    - VISIBILITY IN MILES
  HX     - HEAT INDEX
  WCI    - WIND CHILL INDEX
  VRB    - VARIABLE WIND DIRECTION
  N/A    - NOT AVAILABLE
  

Return to Home page


Western Regional Climate Center, wrcc@dri.edu